Tracking 27428 objects as of 31-May-2023
HD Live streaming from Space Station
objects crossing your sky now

ARIANE 2 DEB

Track ARIANE 2 DEB now!


NORAD ID: 27625
Int'l Code: 1988-098H
Perigee: 927.4 km
Apogee: 39,396.0 km
Inclination: 4.0 °
Period: 716.9 minutes
Semi major axis: 26532 km
RCS: 0.1 m2 (medium)
Launch date: October 28, 1988
Source: France (FR)
Launch site: FRENCH GUIANA (FRGUI)

Note: This is SATELLITE DEBRIS
Your satellite tracking list
Your tracking list is empty




NASA's NSSDC Master Catalog

Two Line Element Set (TLE):
1 27625U 88098H   23151.26668439 -.00000194  00000-0 -19477-1 0  9996
2 27625   4.0320 293.5077 7249278 325.0154 347.5621  2.00877116152508
Source of the keplerian elements: AFSPC